Home > Time Zones > World Clock > Weather > Latvia > Riga > Past weeks

Flag for Latvia Weather past 2 weeks in Riga, Latvia

Now
86 °F

Passing clouds.


Feels Like: 84 °F
Forecast: 59 / 74 °F
Wind: 7 mph from West

Location: Riga Airport

Current Time: Jul 4, 2015 at 4:50:06 PM

Latest Report: Jul 4, 2015 at 4:20 PM


Visibility: N/A

Pressure: 30.12 "Hg

Humidity: 33%

Dew point: 54 °F

Location of RigaLocation

Historic Weather in Riga — Graph

°F

Riga temperature yesterday

Maximum temperature yesterday: 84 °F (at 3:50 PM)
Minimum temperature yesterday: 50 °F (at 4:20 AM)
Average temperature yesterday: 70 °F

Past Weeks' High & Low Weather Summary

 TemperatureHumidityPressure
High88 °F (Jul 4, 2:50 PM)100% (Jun 19, 11:50 PM)30.42 "Hg (Jun 19, 11:50 PM)
Low43 °F (Jun 28, 4:50 AM)31% (Jul 2, 4:50 PM)29.68 "Hg (Jun 23, 1:20 PM)
Average60 °F77%30.00 "Hg
* Reported Jun 19 3:20 PM — Jul 4 3:50 PM, Riga, Weather by CustomWeather, © 2015

Note: Actual official high and low records may vary slightly from our data, if they occured in-between our weather recording intervals... More about our weather records

Advertising

Riga weather history for previous 24 hours

 ConditionsComfort  
Time TempWeatherWind HumidityBarometerVisibility
3:50 PM
Sat, Jul 4
86 °FPassing clouds.9 mph31%30.12 "HgN/A
3:20 PM86 °FSunny.10 mph31%30.12 "Hg10 mi
2:50 PM88 °FPassing clouds.10 mph31%30.12 "HgN/A
2:20 PM86 °FPassing clouds.12 mph33%30.15 "HgN/A
1:50 PM86 °FPassing clouds.12 mph35%30.15 "HgN/A
1:20 PM84 °FPassing clouds.8 mph40%30.15 "HgN/A
12:50 PM84 °FPassing clouds.9 mph40%30.15 "HgN/A
12:20 PM82 °FPassing clouds.12 mph42%30.18 "HgN/A
11:50 AM82 °FPassing clouds.8 mph40%30.18 "HgN/A
11:20 AM81 °FPassing clouds.9 mph42%30.18 "HgN/A
10:50 AM79 °FPassing clouds.7 mph45%30.18 "HgN/A
10:20 AM79 °FPassing clouds.7 mph45%30.18 "HgN/A
9:50 AM77 °FPassing clouds.5 mph44%30.21 "HgN/A
9:20 AM75 °FPassing clouds.5 mph54%30.21 "HgN/A
8:50 AM73 °FPassing clouds.3 mph57%30.21 "HgN/A
8:20 AM72 °FPassing clouds.5 mph69%30.21 "HgN/A
7:50 AM68 °FPassing clouds.5 mph73%30.21 "HgN/A
7:20 AM66 °FSunny.5 mph78%30.21 "Hg10 mi
6:50 AM63 °FPassing clouds.3 mph88%30.24 "HgN/A
6:20 AM59 °FSunny.3 mph94%30.24 "Hg10 mi
5:50 AM57 °FSunny.3 mph100%30.24 "Hg10 mi
5:20 AM55 °FClear.5 mph100%30.24 "Hg10 mi
4:50 AM55 °FClear.5 mph94%30.24 "HgN/A
4:20 AM55 °FClear.5 mph100%30.24 "Hg10 mi
3:50 AM55 °FClear.5 mph100%30.24 "Hg10 mi
3:20 AM57 °FClear.6 mph100%30.27 "HgN/A
2:50 AM59 °FClear.5 mph100%30.27 "Hg10 mi
2:20 AM59 °FClear.2 mph100%30.27 "Hg10 mi
1:50 AM59 °FClear.1 mph94%30.27 "Hg10 mi
1:20 AM59 °FClear.1 mph100%30.27 "Hg10 mi
12:50 AM61 °FClear.2 mph94%30.27 "Hg10 mi
12:20 AM63 °FClear.No wind88%30.27 "Hg10 mi
11:50 PM
Fri, Jul 3
64 °FClear.2 mph88%30.30 "Hg10 mi
11:20 PM66 °FClear.5 mph78%30.30 "Hg10 mi
10:50 PM66 °FSunny.6 mph73%30.30 "Hg10 mi
10:20 PM70 °FSunny.3 mph64%30.30 "Hg10 mi
9:50 PM72 °FSunny.5 mph65%30.30 "Hg10 mi
9:20 PM75 °FSunny.3 mph61%30.30 "Hg10 mi
8:50 PM79 °FPassing clouds.5 mph54%30.30 "HgN/A
8:20 PM82 °FPassing clouds.9 mph45%30.30 "HgN/A
7:50 PM82 °FPassing clouds.8 mph40%30.30 "HgN/A
7:20 PM84 °FPassing clouds.7 mph37%30.30 "HgN/A
6:50 PM84 °FPassing clouds.7 mph37%30.33 "HgN/A
6:20 PM84 °FSunny.3 mph37%30.33 "Hg10 mi
5:50 PM84 °FPassing clouds.6 mph37%30.33 "HgN/A
5:20 PM84 °FPassing clouds.5 mph37%30.33 "HgN/A
4:50 PM84 °FPassing clouds.7 mph40%30.36 "HgN/A
4:20 PM84 °FPassing clouds.7 mph37%30.36 "HgN/A
Weather by CustomWeather, © 2015

See weather overviewHow to use our weather pages